Location: Aalen
(48.8330°N, 10.1000°E)
Time: 18:55:24
(UTC+02:00)

Transit 4A - Pass Details

Date: 07 August 2021
Orbit: 871 x 974 km, 66.8° (Epoch: 16 September)

Event Time Altitude Azimuth Distance (km) Brightness Sun altitude
Rises 10:25:40 0° 309° (NW) 3,489 10.5 41.2°
Reaches altitude 10° 10:29:52 10° 280° (W) 2,561 9.9 41.8°
Maximum altitude 10:32:01 12° 259° (WSW) 2,418 9.8 42.1°
Drops below altitude 10° 10:34:11 10° 237° (WSW) 2,577 10.1 42.5°
Sets 10:38:28 0° 208° (SSW) 3,537 10.9 43.1°
